PKSRH WAYY-WABF

Flight info

Callsign PKSRH
Flight time N/A
Altitude 8000
Route TMK Z663 BIRET DCT NUMFO
Aircraft C208/L-SDFGR/C

Departure

Time 2026-04-16 12:32
Airport Mozes Kilangin Airport (WAYY)

Arrival

Time N/A
Airport Kornasoren Airport (WABF)
Time Latitude Longitude Altitude Speed Heading
2026-04-16 12:32 -4.40148 136.71429 5559 ft 126 kts 306°
2026-04-16 12:32 -4.39625 136.70738 5778 ft 123 kts 307°
2026-04-16 12:32 -4.39106 136.70054 5999 ft 123 kts 307°
2026-04-16 12:32 -4.38589 136.69372 6220 ft 123 kts 307°
2026-04-16 12:33 -4.38073 136.68691 6442 ft 123 kts 307°
2026-04-16 12:33 -4.37557 136.68013 6663 ft 121 kts 307°
2026-04-16 12:33 -4.37052 136.67347 6882 ft 122 kts 308°
2026-04-16 12:33 -4.36533 136.66680 7103 ft 121 kts 308°
2026-04-16 12:34 -4.36025 136.66012 7323 ft 120 kts 307°
2026-04-16 12:34 -4.35526 136.65353 7541 ft 118 kts 307°
2026-04-16 12:34 -4.35030 136.64696 7761 ft 118 kts 307°
2026-04-16 12:34 -4.34539 136.64047 7979 ft 116 kts 307°
2026-04-16 12:35 -4.34052 136.63403 8197 ft 115 kts 307°
2026-04-16 12:35 -4.33573 136.62770 8414 ft 113 kts 307°
2026-04-16 12:35 -4.33107 136.62155 8626 ft 111 kts 307°
2026-04-16 12:35 -4.32644 136.61542 8840 ft 109 kts 307°
2026-04-16 12:36 -4.32185 136.60933 8997 ft 114 kts 307°
2026-04-16 12:36 -4.31668 136.60258 9022 ft 130 kts 308°
2026-04-16 12:36 -4.31085 136.59501 9017 ft 144 kts 308°
2026-04-16 12:36 -4.30452 136.58679 9018 ft 154 kts 308°
2026-04-16 12:37 -4.29786 136.57806 9014 ft 159 kts 308°
2026-04-16 12:37 -4.29125 136.56932 9007 ft 156 kts 307°
2026-04-16 12:37 -4.28477 136.56073 9005 ft 154 kts 308°
2026-04-16 12:37 -4.27843 136.55235 9003 ft 152 kts 308°
2026-04-16 12:38 -4.27205 136.54391 9000 ft 151 kts 308°
2026-04-16 12:38 -4.26570 136.53552 8997 ft 151 kts 308°
2026-04-16 12:38 -4.25938 136.52716 8995 ft 151 kts 308°
2026-04-16 12:38 -4.25304 136.51881 8993 ft 150 kts 308°
2026-04-16 12:39 -4.24648 136.51066 8992 ft 150 kts 317°
2026-04-16 12:39 -4.23820 136.50434 8994 ft 150 kts 324°
2026-04-16 12:39 -4.22978 136.49822 8994 ft 150 kts 324°
2026-04-16 12:39 -4.22145 136.49218 8994 ft 150 kts 324°
2026-04-16 12:40 -4.21297 136.48603 8998 ft 153 kts 324°
2026-04-16 12:40 -4.20416 136.47967 9016 ft 159 kts 325°
2026-04-16 12:40 -4.19500 136.47311 9012 ft 164 kts 325°
2026-04-16 12:40 -4.18563 136.46638 9006 ft 167 kts 325°
2026-04-16 12:41 -4.17608 136.45955 9005 ft 169 kts 325°
2026-04-16 12:41 -4.16646 136.45266 9006 ft 171 kts 325°
2026-04-16 12:41 -4.15680 136.44572 9006 ft 172 kts 325°
2026-04-16 12:41 -4.14719 136.43883 9007 ft 172 kts 325°
2026-04-16 12:42 -4.13743 136.43183 9006 ft 173 kts 325°
2026-04-16 12:42 -4.12764 136.42482 9005 ft 173 kts 325°
2026-04-16 12:42 -4.11787 136.41783 9016 ft 173 kts 325°
2026-04-16 12:42 -4.10810 136.41084 9013 ft 173 kts 325°
2026-04-16 12:43 -4.09834 136.40386 9012 ft 173 kts 325°
2026-04-16 12:43 -4.08861 136.39689 9010 ft 173 kts 325°
2026-04-16 12:43 -4.07880 136.38986 9002 ft 173 kts 325°
2026-04-16 12:43 -4.06918 136.38296 9002 ft 172 kts 325°
2026-04-16 12:44 -4.05943 136.37596 9001 ft 173 kts 325°
2026-04-16 12:44 -4.04935 136.36947 9002 ft 172 kts 336°
2026-04-16 12:44 -4.03815 136.36522 9004 ft 172 kts 341°
2026-04-16 12:44 -4.02684 136.36120 9005 ft 173 kts 341°
2026-04-16 12:45 -4.01549 136.35716 9010 ft 173 kts 342°
2026-04-16 12:45 -4.00366 136.35658 9010 ft 172 kts 10°
2026-04-16 12:45 -3.99189 136.35891 9018 ft 173 kts 12°
2026-04-16 12:45 -3.98010 136.36144 9018 ft 173 kts 19°
2026-04-16 12:46 -3.97015 136.36778 9014 ft 173 kts 40°
2026-04-16 12:46 -3.96079 136.37538 9020 ft 173 kts 39°
2026-04-16 12:46 -3.95105 136.38241 9014 ft 173 kts 34°
2026-04-16 12:46 -3.94100 136.38904 9017 ft 173 kts 33°
2026-04-16 12:47 -3.93089 136.39563 9013 ft 174 kts 33°
2026-04-16 12:47 -3.92080 136.40226 9013 ft 173 kts 33°
2026-04-16 12:47 -3.91072 136.40886 9012 ft 173 kts 33°
2026-04-16 12:47 -3.90063 136.41546 9022 ft 173 kts 33°
2026-04-16 12:48 -3.89054 136.42209 9008 ft 173 kts 33°
2026-04-16 12:48 -3.88058 136.42861 9012 ft 174 kts 34°
2026-04-16 12:48 -3.87047 136.43525 9011 ft 174 kts 34°
2026-04-16 12:48 -3.86035 136.44190 9004 ft 174 kts 34°
2026-04-16 12:49 -3.85021 136.44851 9003 ft 174 kts 33°
2026-04-16 12:49 -3.84009 136.45514 9002 ft 174 kts 34°
2026-04-16 12:49 -3.82999 136.46178 9001 ft 174 kts 33°
2026-04-16 12:49 -3.81988 136.46840 9001 ft 174 kts 34°
2026-04-16 12:50 -3.80975 136.47504 9000 ft 174 kts 33°
2026-04-16 12:50 -3.79963 136.48167 9001 ft 174 kts 34°
2026-04-16 12:50 -3.78967 136.48821 9001 ft 174 kts 34°
2026-04-16 12:50 -3.77956 136.49485 9002 ft 174 kts 34°
2026-04-16 12:51 -3.76945 136.50149 9000 ft 174 kts 33°
2026-04-16 12:51 -3.75932 136.50811 9001 ft 174 kts 33°
2026-04-16 12:51 -3.74915 136.51477 9000 ft 175 kts 34°
2026-04-16 12:51 -3.73900 136.52143 9000 ft 175 kts 33°
2026-04-16 12:52 -3.72885 136.52807 9002 ft 174 kts 33°
2026-04-16 12:52 -3.71869 136.53470 9001 ft 174 kts 34°
2026-04-16 12:52 -3.70872 136.54126 9008 ft 174 kts 34°
2026-04-16 12:52 -3.69859 136.54789 9006 ft 173 kts 33°
2026-04-16 12:53 -3.68850 136.55449 9005 ft 172 kts 33°
2026-04-16 12:53 -3.67844 136.56108 9016 ft 173 kts 34°
2026-04-16 12:53 -3.66836 136.56777 9010 ft 174 kts 36°
2026-04-16 12:53 -3.66020 136.57659 9023 ft 173 kts 57°
2026-04-16 12:54 -3.65392 136.58678 9016 ft 172 kts 71°
2026-04-16 12:54 -3.65400 136.59847 9025 ft 171 kts 105°
2026-04-16 12:54 -3.65722 136.61003 9031 ft 171 kts 108°
2026-04-16 12:54 -3.66074 136.62138 9030 ft 174 kts 109°
2026-04-16 12:55 -3.66449 136.63294 9026 ft 175 kts 109°
2026-04-16 12:55 -3.66824 136.64454 9025 ft 176 kts 109°
2026-04-16 12:55 -3.67200 136.65618 9032 ft 176 kts 109°
2026-04-16 12:55 -3.67578 136.66784 9028 ft 176 kts 109°
2026-04-16 12:56 -3.67967 136.67955 9030 ft 176 kts 109°
2026-04-16 12:56 -3.68348 136.69118 9023 ft 176 kts 109°
2026-04-16 12:56 -3.68726 136.70284 9028 ft 176 kts 109°
2026-04-16 12:56 -3.69090 136.71410 9172 ft 167 kts 109°
2026-04-16 12:57 -3.69434 136.72494 9359 ft 160 kts 109°
2026-04-16 12:57 -3.69764 136.73532 9543 ft 154 kts 109°
2026-04-16 12:57 -3.70086 136.74536 9730 ft 149 kts 108°
2026-04-16 12:57 -3.70398 136.75516 9918 ft 146 kts 108°
2026-04-16 12:58 -3.70702 136.76472 10106 ft 142 kts 108°
2026-04-16 12:58 -3.71004 136.77404 10296 ft 139 kts 108°
2026-04-16 12:58 -3.71300 136.78319 10485 ft 137 kts 108°
2026-04-16 12:58 -3.71589 136.79215 10676 ft 134 kts 108°
2026-04-16 12:59 -3.71865 136.80076 10862 ft 129 kts 108°
2026-04-16 12:59 -3.72124 136.80927 11011 ft 129 kts 101°
2026-04-16 12:59 -3.72225 136.81866 11021 ft 142 kts 95°
2026-04-16 13:00 -3.72432 136.83960 11032 ft 158 kts 96°
2026-04-16 13:00 -3.72541 136.85073 11024 ft 163 kts 96°
2026-04-16 13:00 -3.72655 136.86219 11018 ft 167 kts 96°
2026-04-16 13:00 -3.72769 136.87384 11017 ft 169 kts 96°
2026-04-16 13:01 -3.72882 136.88541 11018 ft 170 kts 96°
2026-04-16 13:01 -3.72997 136.89723 11018 ft 171 kts 96°
2026-04-16 13:01 -3.73112 136.90908 11017 ft 172 kts 96°
2026-04-16 13:01 -3.73227 136.92098 11019 ft 172 kts 96°
2026-04-16 13:02 -3.73335 136.93291 11019 ft 172 kts 96°
2026-04-16 13:02 -3.73455 136.94484 11017 ft 172 kts 96°
2026-04-16 13:02 -3.73566 136.95681 11018 ft 173 kts 96°
2026-04-16 13:02 -3.73671 136.96884 11018 ft 173 kts 96°
2026-04-16 13:03 -3.73786 136.98084 11018 ft 174 kts 96°
2026-04-16 13:03 -3.73907 136.99289 11018 ft 174 kts 96°
2026-04-16 13:03 -3.74028 137.00492 11017 ft 174 kts 96°
2026-04-16 13:03 -3.74145 137.01681 11015 ft 173 kts 96°
2026-04-16 13:04 -3.74264 137.02881 11012 ft 173 kts 96°
2026-04-16 13:04 -3.74384 137.04077 11020 ft 172 kts 96°
2026-04-16 13:04 -3.74503 137.05271 11020 ft 172 kts 96°
2026-04-16 13:04 -3.74624 137.06468 11020 ft 173 kts 96°
2026-04-16 13:05 -3.74746 137.07669 11020 ft 173 kts 96°
2026-04-16 13:05 -3.74870 137.08870 11021 ft 173 kts 96°
2026-04-16 13:05 -3.74994 137.10067 11021 ft 173 kts 96°
2026-04-16 13:05 -3.75058 137.11252 11014 ft 173 kts 82°
2026-04-16 13:06 -3.74711 137.12402 11018 ft 173 kts 72°
2026-04-16 13:06 -3.74365 137.13552 11020 ft 173 kts 74°
2026-04-16 13:06 -3.74017 137.14704 11019 ft 173 kts 73°
2026-04-16 13:06 -3.73652 137.15850 11019 ft 173 kts 72°
2026-04-16 13:07 -3.73286 137.16995 11018 ft 173 kts 72°
2026-04-16 13:07 -3.72918 137.18139 11020 ft 173 kts 73°
2026-04-16 13:07 -3.72549 137.19290 11019 ft 174 kts 73°
2026-04-16 13:07 -3.72180 137.20442 11021 ft 173 kts 73°
2026-04-16 13:08 -3.71816 137.21588 11022 ft 173 kts 73°
2026-04-16 13:08 -3.71456 137.22721 11020 ft 173 kts 73°
2026-04-16 13:08 -3.71086 137.23868 11020 ft 174 kts 72°
2026-04-16 13:08 -3.70715 137.25031 11024 ft 177 kts 73°
2026-04-16 13:09 -3.70348 137.26198 11022 ft 174 kts 73°
2026-04-16 13:09 -3.69984 137.27346 11021 ft 173 kts 72°
2026-04-16 13:09 -3.69617 137.28488 11021 ft 172 kts 72°
2026-04-16 13:09 -3.69248 137.29625 11019 ft 172 kts 73°
2026-04-16 13:10 -3.68882 137.30769 11019 ft 173 kts 72°
2026-04-16 13:10 -3.68520 137.31903 11018 ft 174 kts 73°
2026-04-16 13:10 -3.68150 137.33058 11020 ft 174 kts 72°
2026-04-16 13:10 -3.67781 137.34212 11020 ft 174 kts 72°
2026-04-16 13:11 -3.67414 137.35356 11019 ft 173 kts 73°
2026-04-16 13:11 -3.67047 137.36502 11020 ft 173 kts 73°
2026-04-16 13:11 -3.66683 137.37647 11018 ft 173 kts 72°
2026-04-16 13:11 -3.66320 137.38777 11020 ft 173 kts 72°
2026-04-16 13:12 -3.65953 137.39923 11019 ft 173 kts 73°
2026-04-16 13:12 -3.65591 137.41070 11020 ft 173 kts 73°
2026-04-16 13:12 -3.65226 137.42209 11020 ft 172 kts 72°
2026-04-16 13:12 -3.64857 137.43352 11022 ft 171 kts 72°
2026-04-16 13:13 -3.64493 137.44486 11019 ft 171 kts 72°
2026-04-16 13:13 -3.64133 137.45618 11017 ft 172 kts 73°
2026-04-16 13:13 -3.63768 137.46755 11022 ft 171 kts 73°
2026-04-16 13:13 -3.63409 137.47893 11021 ft 172 kts 73°
2026-04-16 13:14 -3.63038 137.49040 11020 ft 172 kts 72°
2026-04-16 13:14 -3.62673 137.50175 11017 ft 171 kts 72°
2026-04-16 13:14 -3.62316 137.51292 11016 ft 171 kts 73°
2026-04-16 13:14 -3.61956 137.52424 11014 ft 171 kts 72°
2026-04-16 13:15 -3.61590 137.53561 11015 ft 172 kts 72°
2026-04-16 13:15 -3.61224 137.54702 11015 ft 173 kts 73°
2026-04-16 13:15 -3.60859 137.55847 11013 ft 172 kts 72°
2026-04-16 13:15 -3.60488 137.56987 11013 ft 173 kts 72°
2026-04-16 13:16 -3.60120 137.58137 11013 ft 174 kts 74°
2026-04-16 13:16 -3.59763 137.59293 11009 ft 174 kts 73°
2026-04-16 13:16 -3.59393 137.60449 11012 ft 174 kts 72°
2026-04-16 13:16 -3.59020 137.61600 11012 ft 174 kts 72°
2026-04-16 13:17 -3.58648 137.62737 11008 ft 174 kts 72°
2026-04-16 13:17 -3.58280 137.63886 11008 ft 173 kts 73°
2026-04-16 13:17 -3.57916 137.65030 11013 ft 173 kts 72°
2026-04-16 13:17 -3.57549 137.66175 11011 ft 173 kts 73°
2026-04-16 13:18 -3.57185 137.67320 11011 ft 173 kts 72°
2026-04-16 13:18 -3.56818 137.68468 11013 ft 173 kts 73°
2026-04-16 13:18 -3.56452 137.69608 11011 ft 171 kts 73°
2026-04-16 13:18 -3.56096 137.70735 11011 ft 169 kts 72°
2026-04-16 13:19 -3.55737 137.71845 11009 ft 170 kts 73°
2026-04-16 13:19 -3.55379 137.72963 11013 ft 169 kts 72°
2026-04-16 13:19 -3.55017 137.74086 11010 ft 170 kts 73°
2026-04-16 13:19 -3.54658 137.75217 11011 ft 169 kts 72°
2026-04-16 13:20 -3.54294 137.76337 11011 ft 170 kts 72°
2026-04-16 13:20 -3.53930 137.77473 11012 ft 172 kts 72°
2026-04-16 13:20 -3.53570 137.78604 11012 ft 171 kts 73°
2026-04-16 13:20 -3.53205 137.79748 11012 ft 173 kts 72°
2026-04-16 13:21 -3.52834 137.80898 11011 ft 173 kts 73°
2026-04-16 13:21 -3.52474 137.82026 11008 ft 174 kts 73°
2026-04-16 13:21 -3.52103 137.83177 11011 ft 174 kts 73°
2026-04-16 13:21 -3.51733 137.84332 11013 ft 173 kts 73°
2026-04-16 13:22 -3.51377 137.85470 11012 ft 173 kts 72°
2026-04-16 13:22 -3.51002 137.86626 11009 ft 173 kts 73°
2026-04-16 13:22 -3.50629 137.87770 11013 ft 172 kts 73°
2026-04-16 13:22 -3.50262 137.88916 11013 ft 173 kts 73°
2026-04-16 13:23 -3.49896 137.90060 11012 ft 173 kts 72°
2026-04-16 13:23 -3.49529 137.91203 11009 ft 172 kts 72°
2026-04-16 13:23 -3.49167 137.92331 11010 ft 173 kts 72°
2026-04-16 13:23 -3.48800 137.93476 11009 ft 173 kts 72°
2026-04-16 13:24 -3.48434 137.94618 11012 ft 172 kts 72°
2026-04-16 13:24 -3.48069 137.95753 11009 ft 171 kts 72°
2026-04-16 13:24 -3.47706 137.96884 11014 ft 171 kts 72°
2026-04-16 13:24 -3.47344 137.98020 11012 ft 171 kts 72°
2026-04-16 13:25 -3.46979 137.99156 11011 ft 172 kts 72°
2026-04-16 13:25 -3.46615 138.00293 11013 ft 172 kts 72°
2026-04-16 13:25 -3.46250 138.01433 11013 ft 172 kts 73°
2026-04-16 13:25 -3.45884 138.02574 11009 ft 172 kts 73°
2026-04-16 13:26 -3.45525 138.03694 11010 ft 171 kts 72°
2026-04-16 13:26 -3.45162 138.04825 11011 ft 170 kts 72°
2026-04-16 13:26 -3.44802 138.05951 11012 ft 170 kts 73°
2026-04-16 13:26 -3.44439 138.07080 11012 ft 171 kts 73°
2026-04-16 13:27 -3.44074 138.08216 11011 ft 171 kts 73°
2026-04-16 13:27 -3.43710 138.09351 11008 ft 172 kts 73°
2026-04-16 13:27 -3.43346 138.10486 11011 ft 171 kts 73°
2026-04-16 13:27 -3.42983 138.11617 11013 ft 171 kts 73°
2026-04-16 13:28 -3.42623 138.12737 11009 ft 171 kts 73°
2026-04-16 13:28 -3.42260 138.13874 11013 ft 171 kts 73°
2026-04-16 13:28 -3.41898 138.15003 10995 ft 171 kts 72°
2026-04-16 13:28 -3.41551 138.16075 10771 ft 152 kts 73°
2026-04-16 13:29 -3.41243 138.17029 10517 ft 137 kts 72°
2026-04-16 13:29 -3.40952 138.17914 10276 ft 132 kts 73°
2026-04-16 13:29 -3.40678 138.18761 10047 ft 125 kts 73°
2026-04-16 13:29 -3.40416 138.19580 9818 ft 122 kts 73°
2026-04-16 13:30 -3.40164 138.20368 9598 ft 119 kts 73°
2026-04-16 13:30 -3.39909 138.21150 9383 ft 117 kts 72°
2026-04-16 13:30 -3.39659 138.21929 9171 ft 119 kts 73°
2026-04-16 13:30 -3.39407 138.22715 8968 ft 118 kts 73°
2026-04-16 13:31 -3.39156 138.23500 8764 ft 118 kts 73°
2026-04-16 13:31 -3.38905 138.24281 8563 ft 118 kts 74°
2026-04-16 13:31 -3.38656 138.25063 8359 ft 117 kts 73°
2026-04-16 13:31 -3.38405 138.25838 8155 ft 117 kts 73°
2026-04-16 13:32 -3.38158 138.26612 7953 ft 116 kts 73°
2026-04-16 13:32 -3.37915 138.27371 7756 ft 116 kts 73°
2026-04-16 13:32 -3.37669 138.28136 7555 ft 115 kts 73°
2026-04-16 13:32 -3.37423 138.28898 7352 ft 115 kts 73°
2026-04-16 13:33 -3.37180 138.29657 7150 ft 114 kts 73°
2026-04-16 13:33 -3.36938 138.30411 6946 ft 113 kts 73°
2026-04-16 13:33 -3.36699 138.31157 6736 ft 113 kts 72°
2026-04-16 13:33 -3.36458 138.31906 6551 ft 114 kts 73°
2026-04-16 13:34 -3.36214 138.32669 6350 ft 116 kts 72°
2026-04-16 13:34 -3.35970 138.33430 6166 ft 117 kts 72°
2026-04-16 13:34 -3.35722 138.34205 5970 ft 117 kts 73°
2026-04-16 13:34 -3.35474 138.34975 5772 ft 116 kts 73°
2026-04-16 13:35 -3.35228 138.35738 5569 ft 115 kts 73°
2026-04-16 13:35 -3.34984 138.36496 5367 ft 114 kts 72°
2026-04-16 13:35 -3.34741 138.37255 5165 ft 114 kts 72°
2026-04-16 13:35 -3.34501 138.38001 4994 ft 112 kts 72°
2026-04-16 13:36 -3.34248 138.38768 4866 ft 121 kts 71°
2026-04-16 13:36 -3.33985 138.39586 4744 ft 126 kts 73°
2026-04-16 13:36 -3.33718 138.40422 4618 ft 129 kts 71°
2026-04-16 13:36 -3.33441 138.41288 4484 ft 132 kts 72°
2026-04-16 13:37 -3.33163 138.42166 4346 ft 133 kts 72°
2026-04-16 13:37 -3.32880 138.43049 4202 ft 134 kts 72°
2026-04-16 13:37 -3.32596 138.43936 4057 ft 134 kts 72°
2026-04-16 13:37 -3.32309 138.44829 3908 ft 135 kts 72°
2026-04-16 13:38 -3.32022 138.45725 3762 ft 135 kts 72°
2026-04-16 13:38 -3.31733 138.46621 3613 ft 135 kts 72°
2026-04-16 13:38 -3.31449 138.47506 3466 ft 136 kts 72°
2026-04-16 13:38 -3.31162 138.48402 3317 ft 135 kts 71°
2026-04-16 13:39 -3.30873 138.49300 3165 ft 135 kts 71°
2026-04-16 13:39 -3.30586 138.50192 3015 ft 135 kts 71°
2026-04-16 13:39 -3.30295 138.51092 2867 ft 137 kts 72°
2026-04-16 13:39 -3.30003 138.52006 2724 ft 140 kts 71°
2026-04-16 13:40 -3.29700 138.52949 2583 ft 144 kts 72°
2026-04-16 13:40 -3.29394 138.53908 2509 ft 144 kts 72°
2026-04-16 13:40 -3.29089 138.54855 2511 ft 146 kts 71°
2026-04-16 13:40 -3.28744 138.55818 2508 ft 148 kts 69°
2026-04-16 13:41 -3.28384 138.56790 2509 ft 149 kts 69°
2026-04-16 13:41 -3.28021 138.57767 2509 ft 149 kts 69°
2026-04-16 13:41 -3.27665 138.58739 2508 ft 151 kts 69°
2026-04-16 13:41 -3.27304 138.59725 2508 ft 150 kts 69°
2026-04-16 13:42 -3.26940 138.60705 2507 ft 150 kts 69°
2026-04-16 13:42 -3.26579 138.61679 2498 ft 148 kts 69°
2026-04-16 13:42 -3.26051 138.62557 2400 ft 144 kts 49°
2026-04-16 13:42 -3.25362 138.63236 2157 ft 139 kts 41°
2026-04-16 13:43 -3.24639 138.63863 1872 ft 134 kts 40°
2026-04-16 13:43 -3.24005 138.64480 1719 ft 115 kts 61°
2026-04-16 13:43 -3.23914 138.64748 1696 ft 107 kts 83°
2026-04-16 13:44 -3.23907 138.64858 1675 ft 106 kts 92°
2026-04-16 13:44 -3.24243 138.65427 1529 ft 92 kts 156°
2026-04-16 13:45 -3.24795 138.65355 1395 ft 81 kts 222°
2026-04-16 13:45 -3.25078 138.64855 1281 ft 86 kts 248°
2026-04-16 13:45 -3.25326 138.64331 1220 ft 75 kts 244°
2026-04-16 13:45 -3.25533 138.63856 1042 ft 76 kts 248°
2026-04-16 13:46 -3.25748 138.63369 909 ft 77 kts 244°
2026-04-16 13:46 -3.26024 138.62904 753 ft 79 kts 237°
2026-04-16 13:46 -3.26335 138.62444 581 ft 80 kts 236°
2026-04-16 13:46 -3.26640 138.61983 368 ft 79 kts 239°
2026-04-16 13:47 -3.26929 138.61539 198 ft 68 kts 236°
2026-04-16 13:47 -3.27132 138.61239 208 ft 31 kts 237°
2026-04-16 13:47 -3.27177 138.61166 213 ft 5 kts 241°
2026-04-16 13:47 -3.27200 138.61134 215 ft 5 kts 167°
2026-04-16 13:48 -3.27173 138.61190 211 ft 15 kts 58°
2026-04-16 13:48 -3.27114 138.61249 207 ft 8 kts 356°
2026-04-16 13:48 -3.27061 138.61252 203 ft 7 kts 55°
2026-04-16 13:48 -3.27038 138.61240 198 ft 3 kts 233°
2026-04-16 13:49 -3.27040 138.61237 198 ft 0 kts 234°